Location: Praha
(50.0830°N, 14.4670°E)
Time: 04:56:46
(UTC+02:00)

ISS - Pass Details

Date: 19 May 2021
Orbit: 417 x 422 km, 51.6° (Epoch: 13 June)

Event Time Altitude Azimuth Distance (km) Brightness Sun altitude
Rises 23:42:30 0° 278° (W) 2,367 0.4 -18.0°
Reaches altitude 10° 23:44:36 10° 282° (WNW) 1,504 -0.6 -18.1°
Maximum altitude 23:47:58 67° 5° (N) 460 -3.4 -18.2°
Enters shadow 23:50:11 20° 85° (E) 1,052 -1.9 -18.3°
